STARLINK-34236, 64743

Orbit data source: Space-Track

STARLINK-34236, 64743 is a payload satellite owned by SpaceX/Seattle (US) in LEO that was launched on Wed, 02 Jul 2025 UTC via an FALCON 9 launch vehicle from the Air Force Eastern Test Range (AFETR). Payload-class satellites include a variety of spacecraft equipped with specific instruments for various scientific and technological missions. These include communications satellites like Starlink; space stations such as the ISS; scientific satellites like the Hubble; Earth observation satellites from companies like Planet Labs, Umbra, and HawkEye 360; GPS; miniature CubeSats for education and research; and military/defense satellites.

Not visible in the next 10 days
Identifier
64743, 2025-144V
Orbit
LEO
Last TLE update
14 hours ago
Origin
Manufacturer
SpaceX/Seattle
Mission
Operational spacecraft
Bus & Motor
STARLINK V2MO, Unknown motor
Mass
575 kg wet, ~530 kg dry
Launch date (UTC)
2025-07-02 (1 week ago)
Launch vehicle
FALCON 9
Launch site
Air Force Eastern Test Range (AFETR)
Object type
Payload
Rocket body
Debris
Shape & HBR
Unknown
Radar Cross Section
RCS unknown

Expand to show TLE details & history

TLE from 14 hours ago
0 STARLINK-34236
1 64743U 25144V   25191.66668981 -.01248979  00000-0 -49769-2 0  9997
2 64743  53.1538 231.6978 0000868  72.5794  33.4092 15.88351887  2572
Epoch: 2025-07-10T16:00Z
TLE epoch observation values (Epoch: 2025-07-10T16:00:01.999Z)
Latitude
50.44142°
Longitude
178.43436°
Altitude
312.314 km
Speed
7.727 km/s
True Right ascension
23h 09m 05s
True Declination
50° 15' 40"
Sunlit
Object was in daylight at epoch
Visualization orbit readout
Latitude
-42.07875°
Longitude
17.53454°
Altitude
325.834 km
Speed
7.712 km/s
Apparent Right ascension
09h 35m 59s
Apparent Declination
-49° 41' 06"
Sunlit
Object is in daylight
Visualization observer readout
Local Sidereal Time
18:42:51
Azimuth
237.499° WSW
Elevation
-58.269°
Doppler factor
1
Orbital elements
Apogee altitude
307.747 km
Perigee altitude
306.587 km
Semi-major axis
6,685.304 km
Eccentricity
0.00009
Inclination
53.1538°
RAAN
231.6978°
Arg. of periapsis
72.5794°
True anomaly
Unknown
Mean anomaly
33.4092°
Eccentric anomaly
Unknown
Mean motion
3.97065 °/min
Orbital period
90.67 mins
BSTAR
-0.0049769
Loading maneuver chart data...
Loading SW <> Apogee altitude chart data...
Loading historical data...
Loading historical data...
Loading historical data...
Loading historical data...
Loading historical data...
Loading historical data...
Loading historical data...

STARLINK-34236 Visibility

Observer location: undefined°, undefined°

STARLINK-34236 is likely not visible in the next few days
Span
Click to sort rows by Start time (UTC) header in descending order
Start Az.
Max El. time (UTC)
Max El. Az.
Max El.
End time (UTC)
End Az.
|